#timestamp,LO_Frequency,Hit,StdDev 
1606136415.0,286046989.1,Y
1606136415.9,286046989.1,P
1606136435.8,286046999.2,P
1606136455.6,286046998.7,N
1606136475.4,286046999.1,N
1606136495.2,286046997.7,N
1606136515.1,286046997.7,N
1606136516.0,286046997.7,N
1606136535.8,286046997.6,N
1606136555.7,286046998.0,N
1606136575.5,286046995.3,N
1606136595.3,286046993.3,N
1606136615.1,286046993.4,N
1606136635.9,286046994.2,N
1606136655.7,286046994.4,N
1606136675.5,286046994.8,N
1606136695.4,286046992.5,N
1606136715.2,286046993.0,N
1606136735.0,286046991.9,N
1606136736.0,286046991.9,N
1606136755.8,286046992.7,N
1606136775.6,286046990.5,Y
1606136795.5,286046993.5,P
1606136815.3,286046994.3,P
1606136835.1,286046993.7,P
1606136855.9,286046994.8,Y
1606136875.7,286046998.2,P
1606136895.5,286046998.2,N
1606136915.4,286046999.2,N
1606136935.2,286046999.3,N
1606136955.0,286046997.0,N
1606136955.9,286046997.0,N
1606136975.8,286046999.0,N
1606136995.6,286046999.5,N
1606137015.4,286046999.1,N
1606137035.2,286046997.0,N
1606137055.1,286046997.9,N
1606137056.0,286046997.9,N
1606137075.8,286046997.7,N
1606137095.7,286046997.8,N
1606137115.5,286046995.2,Y
1606137135.3,286046997.8,P
1606137155.2,286046997.2,P
1606137175.9,286046997.8,P
1606137195.7,286046997.8,Y
1606137215.6,286047000.6,P
1606137235.4,286046998.3,N
1606137255.2,286046998.1,N
1606137275.1,286046998.4,N
1606137276.0,286046998.4,N
1606137295.8,286046997.2,Y
1606137315.6,286046998.7,P
1606137335.5,286046996.7,P
1606137355.3,286046997.4,N
1606137375.1,286046996.8,Y
1606137395.9,286047000.7,P
1606137415.7,286047001.2,N
1606137435.5,286046998.2,N
1606137455.4,286046997.5,N
1606137475.2,286046999.5,N
1606137495.0,286046997.3,N
1606137495.9,286046997.3,N
1606137515.8,286046997.8,N
1606137535.6,286046997.5,N
1606137555.4,286046998.0,N
1606137575.3,286046995.0,Y
1606137595.1,286046996.8,P
1606137596.0,286046996.8,P
1606137615.8,286046997.0,P
1606137635.7,286046999.6,N
1606137655.5,286046997.5,N
1606137675.3,286046996.8,Y
1606137695.2,286047000.3,P
1606137715.9,286047000.2,N
1606137735.7,286047001.0,N
1606137755.6,286047000.5,N
1606137775.4,286046998.1,N
1606137795.2,286046998.2,N
1606137815.1,286046998.1,N
1606137816.0,286046998.1,N
1606137835.8,286046998.3,N
1606137855.6,286046999.3,N
1606137875.5,286046996.7,N
1606137895.3,286046996.6,N
1606137915.1,286046996.6,N
1606137935.9,286046995.3,Y
1606137955.7,286046996.8,P
1606137975.5,286046997.8,N
1606137995.4,286046997.3,P
1606138015.2,286046996.1,Y
1606138035.0,286046997.4,P
1606138035.9,286046997.4,P
1606138055.8,286046997.8,P
1606138075.6,286046997.2,Y
1606138095.4,286046999.5,P
1606138115.3,286046999.3,N
1606138135.1,286046998.4,N
1606138155.8,286046999.6,N
1606138175.7,286046996.8,Y
1606138195.5,286046999.6,P
1606138215.3,286046998.7,P
1606138235.2,286046998.5,P
1606138255.9,286046998.4,Y
1606138275.7,286046998.6,P
1606138295.6,286046998.4,P
1606138315.4,286046999.1,P
1606138335.2,286046999.5,N
1606138355.1,286046996.9,Y
1606138356.0,286046996.9,P
1606138375.8,286046999.2,N
1606138395.6,286046999.2,N
1606138415.5,286046998.8,N
1606138435.3,286047001.0,N
1606138455.1,286046998.5,N
1606138475.9,286046997.1,N
1606138495.7,286046997.3,N
1606138515.5,286046995.1,Y
1606138535.4,286046997.5,P
1606138555.2,286046999.6,N
1606138575.0,286046998.3,N
1606138575.9,286046998.3,N
1606138595.8,286046998.8,N
1606138615.6,286046996.5,Y
1606138635.4,286047000.6,P
1606138655.3,286047000.8,N
1606138675.1,286047000.4,N
1606138695.8,286047000.8,N
1606138715.7,286046998.2,N
1606138735.5,286046996.9,N
1606138755.3,286046999.6,N
1606138775.2,286046997.2,N
1606138795.0,286046999.5,N
1606138795.9,286046999.5,N
1606138815.7,286046996.6,N
1606138835.6,286046998.5,N
1606138855.4,286046999.6,N
1606138875.2,286046997.3,N
1606138895.1,286046996.8,N
1606138896.0,286046996.8,N
1606138915.8,286046997.6,N
1606138935.6,286046997.4,N
1606138955.5,286046997.5,N
1606138975.3,286046997.6,N
1606138995.1,286046993.7,Y
1606139015.9,286046996.9,P
1606139035.7,286046997.4,P
1606139055.5,286046994.9,P
1606139075.4,286046997.6,N
1606139095.2,286046995.0,Y
1606139115.0,286046997.1,P
1606139115.9,286046997.1,P
1606139135.8,286046998.1,P
1606139155.6,286046998.6,Y
1606139175.4,286047000.7,P
1606139195.3,286047000.9,N
1606139215.1,286047000.1,N
1606139235.8,286047000.6,N
1606139255.7,286047000.4,N
1606139275.5,286047000.6,N
1606139295.3,286047000.4,N
1606139315.2,286046998.7,N
1606139335.0,286046999.5,N
1606139335.9,286046999.5,N
1606139355.7,286046998.9,N
1606139375.6,286046998.9,N
1606139395.4,286047001.1,N
1606139415.2,286046998.2,N
1606139435.1,286046999.4,N
1606139436.0,286046999.4,N
1606139455.8,286046997.9,N
1606139475.6,286046997.5,N
1606139495.5,286046997.9,N
1606139515.3,286046997.1,N
1606139535.1,286046995.0,Y
1606139555.9,286046995.9,P
1606139575.7,286046994.9,P
1606139595.5,286046999.6,N
1606139615.4,286046996.6,N
1606139635.2,286046997.8,N
1606139655.0,286046995.0,N
1606139655.9,286046995.0,N
1606139675.8,286046995.4,N
1606139695.6,286046997.7,N
1606139715.4,286046997.0,N
1606139735.3,286046997.8,N
1606139755.1,286046997.4,N
1606139775.8,286046997.6,N
1606139795.7,286046993.4,Y
1606139815.5,286046999.3,P
1606139835.3,286046999.2,N
1606139855.2,286046999.3,N
1606139875.0,286046998.5,N
1606139875.9,286046998.5,N
1606139895.7,286046998.9,N
1606139915.6,286046998.3,N
1606139935.4,286046999.9,N
1606139955.2,286046999.5,N
1606139975.1,286046997.0,Y
1606139976.0,286046997.0,P
1606139995.8,286046999.6,N
